Theta_e
278 277 279 279 279 279 277 278 282 282 282 283 283 283 283 283 283 284 283 282 282 283
276 278 278 279 279 279 281 281 282 282 281 282 282 282 282 282 281 281 281 281 281 282
276 276 274 274 276 279 280 280 280 280 280 280 281 281 281 281 281 280 281 281 280 281
275 274 271 274 279 279 279 279 279 279 280 280 280 281 280 280 280 280 280 281 280 279
274 272 269 272 277 279 279 280 279 280 280 280 280 281 280 279 280 280 278 278 278 278
272 271 268 267 273 279 279 279 279 280 280 280 280 273 273 277 276 271 270 271 270 271
268 268 268 268 273 279 279 279 279 280 280 275 273 271 270 270 269 268 267 268 269 271
265 264 264 265 270 277 278 279 280 272 269 268 269 272 267 271 270 268 268 267 269 271
262 264 266 267 267 270 271 270 268 269 268 269 273 279 282 280 269 269 271 271 271 273
268 269 270 271 271 270 270 269 269 269 269 269 270 279 282 283 274 271 271 272 274 275
272 272 273 272 272 272 271 271 272 272 272 273 275 281 282 283 279 277 276 275 274 273
273 273 273 273 273 272 272 273 273 274 274 274 275 280 281 281 278 278 278 278 276 275
274 273 273 273 274 275 274 275 275 276 275 275 275 279 281 281 278 276 276 276 276 279
272 272 273 274 274 274 273 274 273 273 274 273 274 275 280 281 278 277 276 276 275 275
Wind_Speed
4 2 3 4 3 2 2 3 3 2 3 5 4 4 4 4 4 4 4 6 5 6
3 4 3 4 4 3 2 3 3 2 4 4 5 5 5 4 5 4 4 5 7 7
3 3 3 3 3 4 3 3 3 4 4 5 5 5 5 4 4 4 5 5 7 7
3 3 3 4 4 3 3 3 4 4 5 5 5 5 4 4 4 6 6 6 6 9
3 4 4 4 3 3 4 4 5 6 6 6 5 4 4 4 5 4 5 7 7 8
5 5 4 3 5 4 4 5 6 7 6 5 4 3 4 5 5 4 5 5 5 6
5 4 3 3 5 4 5 6 7 7 5 4 3 4 5 4 4 5 5 5 5 5
4 3 3 4 4 5 7 7 7 3 5 3 4 5 4 6 5 6 6 5 6 6
4 3 5 5 5 6 7 6 4 6 5 6 5 12 14 11 4 5 5 6 6 6
4 5 6 6 5 7 7 5 6 6 5 8 7 15 15 15 4 5 6 6 6 6
5 6 6 6 7 7 5 7 6 7 8 8 8 15 15 15 6 5 6 7 6 6
5 6 6 7 7 6 5 6 8 7 7 8 9 15 15 12 5 7 8 7 7 7
6 7 7 7 8 6 6 8 6 8 8 9 10 13 15 13 4 8 7 6 7 12
8 8 8 8 7 6 6 7 6 8 7 7 8 10 17 17 9 7 7 7 6 5
Wind_Direction
239 232 241 241 233 237 216 234 270 274 278 283 285 283 269 263 258 253 261 272 269 272
242 242 242 243 238 221 236 250 249 276 268 276 273 262 260 254 258 266 272 264 258 256
240 257 259 246 240 231 238 249 264 257 263 263 259 255 252 261 264 267 268 274 269 266
252 263 272 243 231 239 242 251 255 260 259 256 259 255 256 262 268 261 269 270 277 283
241 243 256 258 268 253 251 254 249 254 252 255 248 255 259 267 254 254 286 289 290 290
236 231 241 258 277 251 256 254 256 250 244 246 247 255 266 258 264 250 261 271 270 270
246 236 235 244 265 254 256 252 251 248 247 257 270 253 262 262 258 252 256 254 258 269
249 253 268 251 253 266 257 247 247 268 277 269 260 261 251 254 247 242 267 269 263 257
261 246 245 244 237 243 253 255 254 261 253 271 260 266 267 267 232 233 240 263 269 258
248 257 252 244 228 235 238 232 245 250 244 253 252 263 265 266 227 225 240 248 256 270
256 256 253 240 241 243 224 232 240 240 237 247 253 263 263 264 250 241 241 241 242 239
273 266 261 253 248 239 230 237 237 237 238 235 255 261 265 265 250 252 252 247 242 239
299 280 271 261 257 249 231 250 244 250 236 239 253 260 265 267 252 260 259 247 244 241
306 300 286 279 270 262 250 251 245 247 252 244 241 258 265 265 260 248 258 253 253 231